Location: Vaughan
(31.9146°N, 97.1736°W)
Time: 21:56:00
(UTC+00:00)

CZ-4C R/B - Pass Details

Date: 10 December 2025
Orbit: 484 x 1495 km, 63.4° (Epoch: 21 January)

Event Time Altitude Azimuth Distance (km) Brightness Sun altitude
Rises 01:29:28 0° 325° (NW) 4,004 6.0 -25.8°
Reaches altitude 10° 01:32:01 10° 323° (NW) 3,166 5.4 -26.3°
Maximum altitude 01:39:48 63° 244° (WSW) 1,525 3.6 -27.9°
Drops below altitude 10° 01:48:48 10° 166° (SSE) 3,623 5.4 -29.8°
Sets 01:51:55 0° 163° (SSE) 4,611 5.9 -30.4°
